Ft. Stewart, GA

4:40 PM EST on November 17, 2017 (GMT -0500)
Wright Army Air Field

Weather History for KLHW - November, 2013

Change the Weather History Date:

Sunday, November 24, 2013

  Actual Average Record
Temperature  
Mean Temperature 47 °F -  
Max Temperature 60 °F 69 °F 81 °F (1967)
Min Temperature 33 °F 48 °F 21 °F (1970)
Degree Days  
Heating Degree Days 18    
Moisture  
Dew Point 36 °F    
Average Humidity 66    
Maximum Humidity 100    
Minimum Humidity 32    
Precipitation  
Precipitation 0.00 in - - ()
Sea Level Pressure  
Sea Level Pressure 30.30 in    
Wind  
Wind Speed 8 mph (NNE)    
Max Wind Speed 18 mph    
Max Gust Speed 25 mph    
Visibility 10 miles    
Events      
Averages and records for this station are not official NWS values.
T = Trace of Precipitation, MM = Missing Value Source: NWS Daily Summary

Daily Weather History Graph

Daily Weather History Graph

Search for Another Location

Airport or City:

Trip Planner

Search our weather history database for the weather conditions in past years. The results will help you decide how hot, cold, wet, or windy it might be!

Date:

Astronomy

Nov. 24, 2013 Rise Set
Actual Time 7:02 AM EST 5:22 PM EST
Civil Twilight 6:36 AM EST 5:49 PM EST
Nautical Twilight 6:06 AM EST 6:19 PM EST
Astronomical Twilight 5:37 AM EST 6:48 PM EST
Moon 11:35 PM EST (11/24) 12:00 PM EST (11/24)
Length of Visible Light 11h 12m
Length of Day
10h 20m
Waning Gibbous, 61% of the Moon is Illuminated
Nov 24
Waning Gibbous
Nov 25
Last Quarter
Dec 2
New
Dec 9
First Quarter
Dec 17
Full

Hourly Weather History & Observations

Time (EST) Temp. Windchill Dew Point Humidity Pressure Visibility Wind Dir Wind Speed Gust Speed Precip Events Conditions
12:33 AM 60.8 °F - 60.8 °F 100% 30.11 in 10.0 mi North 5.8 mph - N/A   Overcast
12:47 AM 60.8 °F - 60.8 °F 100% 30.11 in 10.0 mi North 4.6 mph - N/A   Light Drizzle
12:56 AM 59.0 °F - 59.0 °F 100% 30.11 in 10.0 mi NNW 5.8 mph - N/A   Overcast
12:58 AM 59.0 °F - 59.0 °F 100% 30.12 in 10.0 mi NNW 5.8 mph - 0.00 in   Overcast
1:03 AM 59.0 °F - 59.0 °F 100% 30.11 in 10.0 mi NNW 5.8 mph - N/A   Overcast
1:58 AM 59.5 °F - 59.5 °F 100% 30.14 in 10.0 mi North 5.8 mph - N/A   Overcast
2:58 AM 58.6 °F - 57.9 °F 97% 30.15 in 10.0 mi NNE 6.9 mph - N/A   Mostly Cloudy
3:28 AM 57.2 °F - 53.6 °F 88% 30.14 in 10.0 mi North 6.9 mph - N/A   Mostly Cloudy
3:58 AM 55.4 °F - 48.0 °F 76% 30.16 in 10.0 mi NNE 10.4 mph - N/A   Scattered Clouds
4:58 AM 52.2 °F - 44.1 °F 74% 30.19 in 10.0 mi North 8.1 mph - N/A   Clear
5:58 AM 49.3 °F - 37.9 °F 65% 30.23 in 10.0 mi North 8.1 mph - N/A   Clear
6:58 AM 46.8 °F - 35.2 °F 64% 30.27 in 10.0 mi North 8.1 mph - N/A   Clear
7:58 AM 46.0 °F 40.6 °F 32.9 °F 60% 30.30 in 10.0 mi NNE 11.5 mph 18.4 mph N/A   Clear
8:58 AM 47.1 °F - 28.9 °F 49% 30.34 in 10.0 mi NNE 18.4 mph 24.2 mph N/A   Clear
9:58 AM 47.8 °F - 27.5 °F 45% 30.37 in 10.0 mi NNE 16.1 mph 25.3 mph N/A   Clear
10:58 AM 48.7 °F - 26.2 °F 42% 30.39 in 10.0 mi NNE 11.5 mph 20.7 mph N/A   Clear
11:33 AM 50.0 °F - 26.6 °F 40% 30.37 in 10.0 mi NNE 13.8 mph 23.0 mph N/A   Clear
11:58 AM 51.3 °F - 25.0 °F 36% 30.38 in 10.0 mi NNW 16.1 mph - N/A   Clear
12:58 PM 52.7 °F - 26.6 °F 36% 30.34 in 10.0 mi North 13.8 mph 21.9 mph N/A   Clear
1:58 PM 53.1 °F - 24.3 °F 33% 30.33 in 10.0 mi NNE 12.7 mph - N/A   Clear
2:58 PM 52.7 °F - 23.4 °F 32% 30.33 in 10.0 mi NE 10.4 mph - N/A   Clear
3:58 PM 51.4 °F - 23.2 °F 33% 30.35 in 10.0 mi NE 8.1 mph - N/A   Clear
4:58 PM 48.7 °F - 23.9 °F 38% 30.37 in 10.0 mi NNE 6.9 mph - N/A   Clear
5:58 PM 42.1 °F 39.2 °F 29.7 °F 61% 30.39 in 10.0 mi NNE 4.6 mph - N/A   Clear
6:58 PM 37.6 °F 34.0 °F 29.3 °F 72% 30.42 in 10.0 mi NNE 4.6 mph - N/A   Clear
7:29 PM 39.2 °F 35.0 °F 26.6 °F 61% 30.43 in 10.0 mi NNE 5.8 mph - N/A   Clear
7:39 PM 37.4 °F 32.1 °F 28.4 °F 70% 30.43 in 10.0 mi NE 6.9 mph - N/A   Clear
7:58 PM 38.7 °F 33.6 °F 25.7 °F 60% 30.43 in 10.0 mi NE 6.9 mph - 0.00 in   Clear
8:58 PM 37.4 °F 32.8 °F 25.0 °F 61% 30.46 in 10.0 mi NNE 5.8 mph - N/A   Clear
9:58 PM 34.5 °F 29.4 °F 26.4 °F 72% 30.47 in 10.0 mi NNE 5.8 mph - N/A   Clear
10:58 PM 34.3 °F 28.4 °F 25.0 °F 69% 30.47 in 10.0 mi NNE 6.9 mph - N/A   Clear
11:58 PM 33.8 °F 28.6 °F 23.9 °F 67% 30.46 in 10.0 mi NNE 5.8 mph - N/A   Clear